| time (UTC) | temp F | wind direction | speed MPH | gust MPH | rain 1hr in | rain 24hr in | rain mn in | humidity % | barometer mb |
| 20260504205501 | 77 | 139 | 2.0 | 5.0 | 0.00 | 0.00 | 0.00 | 34 | 982.4 |
| 20260504205058 | 77 | 336 | 0.0 | 3.0 | 0.00 | 0.00 | 0.00 | 32 | 982.4 |
| 20260504204552 | 77 | 232 | 2.0 | 4.0 | 0.00 | 0.00 | 0.00 | 32 | 982.6 |
| 20260504204048 | 78 | 81 | 2.0 | 6.0 | 0.00 | 0.00 | 0.00 | 30 | 982.6 |
| 20260504203542 | 79 | 258 | 3.0 | 6.0 | 0.00 | 0.00 | 0.00 | 30 | 982.5 |
| 20260504203037 | 79 | 139 | 1.0 | 4.0 | 0.00 | 0.00 | 0.00 | 29 | 982.6 |
| 20260504202532 | 79 | 289 | 3.0 | 4.0 | 0.00 | 0.00 | 0.00 | 31 | 982.7 |
| 20260504202032 | 78 | 300 | 1.0 | 4.0 | 0.00 | 0.00 | 0.00 | 28 | 982.5 |
| 20260504201527 | 78 | 117 | 2.0 | 4.0 | 0.00 | 0.00 | 0.00 | 28 | 983.0 |
| 20260504201017 | 78 | 265 | 0.0 | 7.0 | 0.00 | 0.00 | 0.00 | 27 | 982.8 |
| 20260504200517 | 79 | 289 | 10.0 | 10.0 | 0.00 | 0.00 | 0.00 | 29 | 982.8 |
| 20260504200012 | 78 | 259 | 2.0 | 3.0 | 0.00 | 0.00 | 0.00 | 28 | 983.1 |
| 20260504195501 | 79 | 240 | 1.0 | 5.0 | 0.00 | 0.00 | 0.00 | 30 | 983.0 |
| 20260504195057 | 78 | 232 | 3.0 | 3.0 | 0.00 | 0.00 | 0.00 | 29 | 982.8 |
| 20260504194553 | 78 | 94 | 5.0 | 6.0 | 0.00 | 0.00 | 0.00 | 30 | 983.1 |
| 20260504194048 | 79 | 95 | 2.0 | 5.0 | 0.00 | 0.00 | 0.00 | 29 | 983.1 |
| 20260504193544 | 81 | 283 | 3.0 | 5.0 | 0.00 | 0.00 | 0.00 | 30 | 983.2 |
| 20260504193044 | 81 | 180 | 2.0 | 4.0 | 0.00 | 0.00 | 0.00 | 29 | 983.3 |
| 20260504192533 | 79 | 227 | 2.0 | 5.0 | 0.00 | 0.00 | 0.00 | 32 | 983.4 |
| 20260504192033 | 80 | 331 | 3.0 | 4.0 | 0.00 | 0.00 | 0.00 | 31 | 983.3 |
| 20260504191523 | 79 | 95 | 0.0 | 5.0 | 0.00 | 0.00 | 0.00 | 33 | 983.6 |
| 20260504191018 | 79 | 349 | 2.0 | 3.0 | 0.00 | 0.00 | 0.00 | 31 | 983.6 |
| 20260504190518 | 80 | 146 | 2.0 | 4.0 | 0.00 | 0.00 | 0.00 | 31 | 983.8 |
| 20260504190008 | 78 | 101 | 2.0 | 4.0 | 0.00 | 0.00 | 0.00 | 31 | 983.6 |
| 20260504185503 | 78 | 229 | 4.0 | 4.0 | 0.00 | 0.00 | 0.00 | 29 | 983.7 |
| 20260504185059 | 76 | 124 | 0.0 | 4.0 | 0.00 | 0.00 | 0.00 | 31 | 983.9 |
| 20260504184555 | 77 | 85 | 4.0 | 5.0 | 0.00 | 0.00 | 0.00 | 31 | 984.0 |
| 20260504184049 | 77 | 328 | 3.0 | 8.0 | 0.00 | 0.00 | 0.00 | 31 | 983.9 |
| 20260504183545 | 77 | 304 | 3.0 | 4.0 | 0.00 | 0.00 | 0.00 | 32 | 984.0 |
| 20260504183039 | 78 | 252 | 4.0 | 4.0 | 0.00 | 0.00 | 0.00 | 30 | 984.2 |
| 20260504182534 | 77 | 264 | 1.0 | 3.0 | 0.00 | 0.00 | 0.00 | 30 | 984.3 |
| 20260504182030 | 76 | 222 | 2.0 | 4.0 | 0.00 | 0.00 | 0.00 | 33 | 984.2 |
| 20260504181524 | 76 | 103 | 4.0 | 5.0 | 0.00 | 0.00 | 0.00 | 33 | 984.3 |
| 20260504181019 | 77 | 66 | 0.0 | 3.0 | 0.00 | 0.00 | 0.00 | 30 | 984.6 |
| 20260504180515 | 77 | 168 | 2.0 | 4.0 | 0.00 | 0.00 | 0.00 | 30 | 984.4 |
| 20260504180014 | 76 | 319 | 2.0 | 3.0 | 0.00 | 0.00 | 0.00 | 34 | 984.5 |
| 20260504175510 | 77 | 313 | 4.0 | 6.0 | 0.00 | 0.00 | 0.00 | 31 | 984.6 |
| 20260504175100 | 76 | 221 | 2.0 | 5.0 | 0.00 | 0.00 | 0.00 | 32 | 984.6 |
| 20260504174555 | 76 | 297 | 2.0 | 5.0 | 0.00 | 0.00 | 0.00 | 35 | 984.7 |
| 20260504174055 | 75 | 75 | 2.0 | 4.0 | 0.00 | 0.00 | 0.00 | 36 | 984.5 |
| 20260504173551 | 74 | 272 | 2.0 | 7.0 | 0.00 | 0.00 | 0.00 | 34 | 984.9 |
| 20260504173041 | 75 | 211 | 4.0 | 6.0 | 0.00 | 0.00 | 0.00 | 33 | 985.0 |
| 20260504172540 | 76 | 12 | 1.0 | 6.0 | 0.00 | 0.00 | 0.00 | 34 | 985.0 |
| 20260504172030 | 75 | 122 | 3.0 | 4.0 | 0.00 | 0.00 | 0.00 | 32 | 984.9 |
| 20260504171526 | 75 | 333 | 3.0 | 4.0 | 0.00 | 0.00 | 0.00 | 37 | 984.9 |
| 20260504171021 | 75 | 195 | 3.0 | 5.0 | 0.00 | 0.00 | 0.00 | 34 | 985.1 |
| 20260504170515 | 74 | 116 | 2.0 | 7.0 | 0.00 | 0.00 | 0.00 | 34 | 985.1 |
| 20260504151021 | 68 | 285 | 2.0 | 6.0 | 0.00 | 0.00 | 0.00 | 43 | 986.2 |
| 20260504150521 | 68 | 223 | 1.0 | 5.0 | 0.00 | 0.00 | 0.00 | 44 | 986.2 |
| 20260504141022 | 66 | 298 | 3.0 | 5.0 | 0.00 | 0.00 | 0.00 | 46 | 986.7 |
| 20260504140518 | 66 | 215 | 3.0 | 4.0 | 0.00 | 0.00 | 0.00 | 47 | 986.5 |
| 20260504130519 | 61 | 179 | 0.0 | 1.0 | 0.00 | 0.00 | 0.00 | 63 | 986.6 |
| 20260504110521 | 43 | 94 | 1.0 | 2.0 | 0.00 | 0.00 | 0.00 | 94 | 985.8 |
| 20260504100527 | 45 | 49 | 0.0 | 1.0 | 0.00 | 0.00 | 0.00 | 91 | 985.7 |
| 20260504081533 | 45 | 76 | 0.0 | 1.0 | 0.00 | 0.00 | 0.00 | 87 | 985.9 |
| 20260504081028 | 45 | 69 | 0.0 | 1.0 | 0.00 | 0.00 | 0.00 | 86 | 985.8 |
| 20260504080523 | 45 | 63 | 0.0 | 1.0 | 0.00 | 0.00 | 0.00 | 86 | 985.7 |
| 20260504050526 | 51 | 91 | 0.0 | 1.0 | 0.00 | 0.00 | 0.00 | 72 | 986.4 |
| 20260504050021 | 51 | 119 | 0.0 | 1.0 | 0.00 | 0.00 | 0.00 | 71 | 986.4 |
| 20260504045516 | 51 | 130 | 0.0 | 1.0 | 0.00 | 0.00 | 0.00 | 70 | 986.6 |
| 20260504045011 | 51 | 110 | 0.0 | 1.0 | 0.00 | 0.00 | 0.00 | 71 | 986.7 |
| 20260504044511 | 52 | 119 | 0.0 | 1.0 | 0.00 | 0.00 | 0.00 | 72 | 986.5 |
| 20260504044000 | 52 | 339 | 0.0 | 0.0 | 0.00 | 0.00 | 0.00 | 71 | 986.4 |
| 20260504043602 | 52 | 303 | 0.0 | 1.0 | 0.00 | 0.00 | 0.00 | 71 | 986.5 |
| 20260504043052 | 52 | 237 | 0.0 | 0.0 | 0.00 | 0.00 | 0.00 | 71 | 986.6 |
| 20260504042553 | 52 | 306 | 0.0 | 1.0 | 0.00 | 0.00 | 0.00 | 71 | 986.6 |
| 20260504042042 | 52 | 66 | 0.0 | 0.0 | 0.00 | 0.00 | 0.00 | 70 | 986.4 |
| 20260504041537 | 52 | 103 | 0.0 | 1.0 | 0.00 | 0.00 | 0.00 | 70 | 986.5 |
| 20260504041032 | 52 | 315 | 0.0 | 0.0 | 0.00 | 0.00 | 0.00 | 67 | 986.4 |
| 20260504040533 | 53 | 296 | 0.0 | 0.0 | 0.00 | 0.00 | 0.00 | 68 | 986.5 |
| 20260504040022 | 53 | 291 | 0.0 | 1.0 | 0.00 | 0.00 | 0.00 | 66 | 986.4 |
| 20260504035517 | 53 | 300 | 1.0 | 1.0 | 0.00 | 0.00 | 0.00 | 66 | 986.5 |
| 20260504035011 | 53 | 301 | 1.0 | 1.0 | 0.00 | 0.00 | 0.00 | 66 | 986.3 |
| 20260504034507 | 54 | 320 | 0.0 | 1.0 | 0.00 | 0.00 | 0.00 | 67 | 986.5 |
| 20260504034002 | 54 | 309 | 0.0 | 1.0 | 0.00 | 0.00 | 0.00 | 65 | 986.5 |
| 20260504033558 | 54 | 256 | 0.0 | 1.0 | 0.00 | 0.00 | 0.00 | 65 | 986.5 |
| 20260504033058 | 54 | 293 | 0.0 | 2.0 | 0.00 | 0.00 | 0.00 | 65 | 986.7 |
| 20260504032548 | 54 | 53 | 0.0 | 1.0 | 0.00 | 0.00 | 0.00 | 64 | 986.6 |
| 20260504032043 | 54 | 232 | 0.0 | 2.0 | 0.00 | 0.00 | 0.00 | 64 | 986.6 |
| 20260504031538 | 54 | 343 | 0.0 | 1.0 | 0.00 | 0.00 | 0.00 | 65 | 986.5 |
| 20260504031033 | 55 | 291 | 2.0 | 2.0 | 0.00 | 0.00 | 0.00 | 65 | 986.8 |
| 20260504030527 | 55 | 299 | 0.0 | 1.0 | 0.00 | 0.00 | 0.00 | 64 | 986.4 |
| 20260504030023 | 55 | 299 | 0.0 | 1.0 | 0.00 | 0.00 | 0.00 | 61 | 986.5 |
| 20260504025518 | 56 | 306 | 0.0 | 0.0 | 0.00 | 0.00 | 0.00 | 61 | 986.4 |
| 20260504025013 | 56 | 130 | 0.0 | 1.0 | 0.00 | 0.00 | 0.00 | 58 | 986.3 |
| 20260504024508 | 56 | 212 | 0.0 | 1.0 | 0.00 | 0.00 | 0.00 | 58 | 986.3 |
| 20260504024003 | 56 | 209 | 1.0 | 2.0 | 0.00 | 0.00 | 0.00 | 59 | 986.4 |
| 20260504023559 | 56 | 162 | 0.0 | 1.0 | 0.00 | 0.00 | 0.00 | 58 | 986.3 |
| 20260504023059 | 56 | 280 | 1.0 | 2.0 | 0.00 | 0.00 | 0.00 | 59 | 986.1 |
| 20260504022549 | 56 | 230 | 0.0 | 1.0 | 0.00 | 0.00 | 0.00 | 58 | 986.1 |
| 20260504022049 | 56 | 234 | 0.0 | 2.0 | 0.00 | 0.00 | 0.00 | 60 | 986.1 |
| 20260504021544 | 56 | 205 | 0.0 | 1.0 | 0.00 | 0.00 | 0.00 | 60 | 986.0 |
| 20260504021034 | 56 | 224 | 0.0 | 1.0 | 0.00 | 0.00 | 0.00 | 60 | 986.0 |
| 20260504020529 | 56 | 244 | 0.0 | 2.0 | 0.00 | 0.00 | 0.00 | 58 | 985.7 |
| 20260504020024 | 56 | 103 | 0.0 | 1.0 | 0.00 | 0.00 | 0.00 | 61 | 985.7 |
| 20260504015519 | 56 | 152 | 0.0 | 0.0 | 0.00 | 0.00 | 0.00 | 58 | 985.7 |
| 20260504015014 | 57 | 124 | 0.0 | 0.0 | 0.00 | 0.00 | 0.00 | 58 | 985.7 |
| 20260504014508 | 57 | 129 | 0.0 | 1.0 | 0.00 | 0.00 | 0.00 | 56 | 985.6 |
| 20260504014004 | 57 | 13 | 0.0 | 0.0 | 0.00 | 0.00 | 0.00 | 57 | 985.4 |
| 20260504013600 | 57 | 154 | 0.0 | 0.0 | 0.00 | 0.00 | 0.00 | 58 | 985.4 |
| 20260504013055 | 57 | 154 | 0.0 | 0.0 | 0.00 | 0.00 | 0.00 | 59 | 985.5 |
| 20260504012555 | 57 | 129 | 0.0 | 0.0 | 0.00 | 0.00 | 0.00 | 56 | 985.4 |
| 20260504012045 | 58 | 119 | 0.0 | 1.0 | 0.00 | 0.00 | 0.00 | 56 | 985.2 |
| 20260504011540 | 58 | 119 | 0.0 | 1.0 | 0.00 | 0.00 | 0.00 | 55 | 985.1 |
| 20260504011035 | 59 | 44 | 0.0 | 1.0 | 0.00 | 0.00 | 0.00 | 55 | 985.2 |
| 20260504010530 | 59 | 309 | 0.0 | 0.0 | 0.00 | 0.00 | 0.00 | 52 | 985.1 |
| 20260504010025 | 59 | 310 | 0.0 | 0.0 | 0.00 | 0.00 | 0.00 | 53 | 985.0 |
| 20260504005520 | 60 | 306 | 0.0 | 0.0 | 0.00 | 0.00 | 0.00 | 53 | 985.0 |
| 20260504005015 | 60 | 298 | 1.0 | 2.0 | 0.00 | 0.00 | 0.00 | 53 | 985.1 |
| 20260504004510 | 60 | 322 | 0.0 | 1.0 | 0.00 | 0.00 | 0.00 | 52 | 984.9 |
| 20260504004005 | 60 | 32 | 0.0 | 0.0 | 0.00 | 0.00 | 0.00 | 53 | 985.1 |
| 20260504003605 | 61 | 309 | 0.0 | 1.0 | 0.00 | 0.00 | 0.00 | 53 | 984.7 |
| 20260504003100 | 61 | 129 | 0.0 | 0.0 | 0.00 | 0.00 | 0.00 | 51 | 984.9 |
| 20260504002550 | 62 | 130 | 0.0 | 1.0 | 0.00 | 0.00 | 0.00 | 50 | 984.7 |
| 20260504002045 | 62 | 114 | 0.0 | 1.0 | 0.00 | 0.00 | 0.00 | 49 | 984.8 |
| 20260504001545 | 63 | 142 | 0.0 | 1.0 | 0.00 | 0.00 | 0.00 | 46 | 984.8 |
| 20260504001035 | 63 | 157 | 0.0 | 0.0 | 0.00 | 0.00 | 0.00 | 47 | 984.7 |
| 20260504000530 | 64 | 142 | 0.0 | 1.0 | 0.00 | 0.00 | 0.00 | 45 | 984.6 |
| 20260504000025 | 64 | 124 | 0.0 | 0.0 | 0.00 | 0.00 | 0.00 | 44 | 984.7 |
| 20260503235520 | 65 | 150 | 0.0 | 2.0 | 0.00 | 0.00 | 0.00 | 44 | 984.5 |
| 20260503235015 | 66 | 135 | 0.0 | 0.0 | 0.00 | 0.00 | 0.00 | 43 | 984.5 |
| 20260503234510 | 66 | 168 | 0.0 | 2.0 | 0.00 | 0.00 | 0.00 | 41 | 984.6 |
| 20260503234004 | 67 | 142 | 0.0 | 0.0 | 0.00 | 0.00 | 0.00 | 39 | 984.6 |
| 20260503233057 | 68 | 158 | 0.0 | 2.0 | 0.00 | 0.00 | 0.00 | 37 | 984.6 |
| 20260503232551 | 68 | 285 | 2.0 | 2.0 | 0.00 | 0.00 | 0.00 | 34 | 984.6 |
| 20260503232046 | 68 | 147 | 0.0 | 2.0 | 0.00 | 0.00 | 0.00 | 34 | 984.6 |
| 20260503231541 | 69 | 118 | 2.0 | 3.0 | 0.00 | 0.00 | 0.00 | 33 | 984.6 |
| 20260503231036 | 69 | 228 | 0.0 | 4.0 | 0.00 | 0.00 | 0.00 | 33 | 984.6 |
| 20260503230536 | 69 | 8 | 0.0 | 3.0 | 0.00 | 0.00 | 0.00 | 35 | 984.6 |
| 20260503230026 | 70 | 160 | 0.0 | 2.0 | 0.00 | 0.00 | 0.00 | 35 | 984.8 |
| 20260503225521 | 71 | 189 | 0.0 | 2.0 | 0.00 | 0.00 | 0.00 | 31 | 984.7 |
| 20260503225016 | 73 | 307 | 0.0 | 3.0 | 0.00 | 0.00 | 0.00 | 28 | 984.9 |
| 20260503224516 | 75 | 267 | 1.0 | 3.0 | 0.00 | 0.00 | 0.00 | 25 | 984.7 |
| 20260503224006 | 74 | 271 | 2.0 | 2.0 | 0.00 | 0.00 | 0.00 | 26 | 984.6 |
| 20260503223101 | 74 | 310 | 1.0 | 3.0 | 0.00 | 0.00 | 0.00 | 28 | 984.8 |
| 20260503222557 | 73 | 282 | 2.0 | 4.0 | 0.00 | 0.00 | 0.00 | 29 | 984.8 |
| 20260503222046 | 74 | 311 | 4.0 | 7.0 | 0.00 | 0.00 | 0.00 | 28 | 984.9 |
| 20260503221541 | 75 | 275 | 3.0 | 3.0 | 0.00 | 0.00 | 0.00 | 28 | 984.8 |
| 20260503221036 | 76 | 251 | 1.0 | 2.0 | 0.00 | 0.00 | 0.00 | 27 | 984.9 |
| 20260503220531 | 74 | 273 | 2.0 | 2.0 | 0.00 | 0.00 | 0.00 | 30 | 984.8 |
| 20260503220031 | 74 | 202 | 2.0 | 4.0 | 0.00 | 0.00 | 0.00 | 29 | 984.9 |
| 20260503215526 | 75 | 257 | 0.0 | 4.0 | 0.00 | 0.00 | 0.00 | 28 | 984.9 |
| 20260503215016 | 75 | 218 | 2.0 | 5.0 | 0.00 | 0.00 | 0.00 | 28 | 984.9 |
| 20260503214511 | 74 | 160 | 1.0 | 4.0 | 0.00 | 0.00 | 0.00 | 27 | 985.0 |
| 20260503214006 | 75 | 259 | 2.0 | 3.0 | 0.00 | 0.00 | 0.00 | 28 | 984.9 |
| 20260503213502 | 74 | 255 | 2.0 | 6.0 | 0.00 | 0.00 | 0.00 | 29 | 985.1 |
| 20260503213058 | 74 | 296 | 3.0 | 6.0 | 0.00 | 0.00 | 0.00 | 31 | 985.0 |
| 20260503212557 | 74 | 185 | 2.0 | 3.0 | 0.00 | 0.00 | 0.00 | 32 | 985.2 |
| 20260503212052 | 75 | 281 | 3.0 | 6.0 | 0.00 | 0.00 | 0.00 | 27 | 985.0 |
| 20260503211542 | 74 | 138 | 2.0 | 4.0 | 0.00 | 0.00 | 0.00 | 28 | 985.2 |
| 20260503211042 | 74 | 297 | 5.0 | 5.0 | 0.00 | 0.00 | 0.00 | 30 | 985.2 |
| 20260503210532 | 74 | 336 | 1.0 | 5.0 | 0.00 | 0.00 | 0.00 | 28 | 985.1 |
| 20260503210032 | 74 | 302 | 2.0 | 4.0 | 0.00 | 0.00 | 0.00 | 30 | 985.1 |